TimeMST,TemperatureF,Dew PointF,Humidity,Sea Level PressureIn,VisibilityMPH,Wind Direction,Wind SpeedMPH,Gust SpeedMPH,PrecipitationIn,Events,Conditions,WindDirDegrees,DateUTC
12:15 AM,25.7,5.4,42,30.25,10.0,NNW,16.1,21.9,N/A,,Clear,340,2014-01-02 07:15:00
12:35 AM,25.2,6.6,45,30.24,10.0,NW,15.0,25.3,N/A,,Clear,320,2014-01-02 07:35:00
12:55 AM,25.7,6.8,45,30.24,10.0,NNW,18.4,28.8,N/A,,Clear,330,2014-01-02 07:55:00
1:15 AM,25.3,7.7,47,30.24,10.0,NNW,17.3,27.6,N/A,,Clear,340,2014-01-02 08:15:00
1:35 AM,26.1,7.3,45,30.23,10.0,NNW,20.7,35.7,N/A,,Clear,330,2014-01-02 08:35:00
1:55 AM,25.0,7.3,47,30.23,10.0,NNW,17.3,26.5,N/A,,Clear,340,2014-01-02 08:55:00
2:15 AM,24.4,7.2,48,30.23,10.0,NNW,20.7,28.8,N/A,,Clear,330,2014-01-02 09:15:00
2:35 AM,25.2,6.3,45,30.23,10.0,NNW,13.8,31.1,N/A,,Clear,330,2014-01-02 09:35:00
2:55 AM,25.3,6.1,44,30.23,10.0,North,13.8,26.5,N/A,,Clear,350,2014-01-02 09:55:00
3:15 AM,25.3,5.9,44,30.23,10.0,NNW,15.0,23.0,N/A,,Clear,340,2014-01-02 10:15:00
3:35 AM,25.3,5.2,42,30.23,10.0,NNW,16.1,21.9,N/A,,Clear,340,2014-01-02 10:35:00
3:55 AM,25.3,5.2,42,30.23,10.0,NNW,12.7,20.7,N/A,,Clear,330,2014-01-02 10:55:00
4:15 AM,23.0,5.4,47,30.24,10.0,WNW,5.8,9.2,N/A,,Clear,300,2014-01-02 11:15:00
4:35 AM,24.6,4.6,42,30.24,10.0,NNW,15.0,20.7,N/A,,Clear,340,2014-01-02 11:35:00
4:55 AM,24.3,4.5,43,30.24,10.0,NW,10.4,-,N/A,,Clear,310,2014-01-02 11:55:00
5:15 AM,21.2,3.0,46,30.24,10.0,WNW,4.6,-,N/A,,Clear,300,2014-01-02 12:15:00
5:35 AM,19.4,2.3,48,30.24,10.0,Calm,Calm,-,N/A,,Clear,0,2014-01-02 12:35:00
5:55 AM,15.8,2.5,56,30.26,10.0,SSE,4.6,-,N/A,,Clear,150,2014-01-02 12:55:00
6:15 AM,13.6,2.5,61,30.26,10.0,South,3.5,-,N/A,,Clear,180,2014-01-02 13:15:00
6:35 AM,12.2,1.6,63,30.26,10.0,East,3.5,-,N/A,,Clear,90,2014-01-02 13:35:00
6:55 AM,10.9,1.9,67,30.27,10.0,NNE,3.5,-,N/A,,Clear,30,2014-01-02 13:55:00
7:15 AM,10.6,0.1,63,30.28,10.0,NW,4.6,-,N/A,,Clear,320,2014-01-02 14:15:00
7:35 AM,8.8,-1.3,64,30.27,10.0,Calm,Calm,-,N/A,,Clear,0,2014-01-02 14:35:00
7:55 AM,7.9,-0.8,68,30.28,10.0,NW,4.6,-,N/A,,Clear,310,2014-01-02 14:55:00
8:15 AM,10.0,-0.2,63,30.29,10.0,West,6.9,-,N/A,,Clear,270,2014-01-02 15:15:00
8:35 AM,12.6,1.4,61,30.29,10.0,WSW,8.1,-,N/A,,Clear,240,2014-01-02 15:35:00
8:55 AM,16.0,3.4,58,30.30,10.0,WSW,6.9,-,N/A,,Clear,250,2014-01-02 15:55:00
9:15 AM,20.7,4.8,50,30.31,10.0,Calm,Calm,-,N/A,,Clear,0,2014-01-02 16:15:00
9:35 AM,23.5,6.3,48,30.31,10.0,Calm,Calm,-,N/A,,Clear,0,2014-01-02 16:35:00
9:55 AM,21.4,8.6,58,30.31,10.0,WSW,3.5,-,N/A,,Clear,250,2014-01-02 16:55:00
10:15 AM,24.8,8.2,49,30.31,10.0,WSW,3.5,-,N/A,,Clear,250,2014-01-02 17:15:00
10:35 AM,27.3,6.4,41,30.30,10.0,West,3.5,-,N/A,,Clear,280,2014-01-02 17:35:00
10:55 AM,28.8,7.0,40,30.30,10.0,West,4.6,-,N/A,,Clear,260,2014-01-02 17:55:00
11:15 AM,29.8,6.6,38,30.28,10.0,WSW,4.6,-,N/A,,Clear,240,2014-01-02 18:15:00
11:35 AM,31.3,4.3,32,30.28,10.0,WSW,3.5,-,N/A,,Clear,250,2014-01-02 18:35:00
11:55 AM,32.0,7.2,35,30.26,10.0,WSW,4.6,-,N/A,,Clear,250,2014-01-02 18:55:00
12:15 PM,32.7,9.7,38,30.25,10.0,West,4.6,-,N/A,,Clear,260,2014-01-02 19:15:00
12:35 PM,34.0,5.2,30,30.23,10.0,Calm,Calm,-,N/A,,Clear,0,2014-01-02 19:35:00
12:55 PM,34.7,9.1,35,30.22,10.0,Calm,Calm,-,N/A,,Clear,0,2014-01-02 19:55:00
1:15 PM,34.7,12.2,39,30.21,10.0,West,3.5,-,N/A,,Clear,260,2014-01-02 20:15:00
1:35 PM,36.3,7.0,29,30.20,10.0,Calm,Calm,-,N/A,,Clear,0,2014-01-02 20:35:00
1:55 PM,37.4,8.1,30,30.20,10.0,West,3.5,-,N/A,,Clear,260,2014-01-02 20:55:00
2:15 PM,36.5,14.7,41,30.19,10.0,SW,4.6,-,N/A,,Clear,230,2014-01-02 21:15:00
2:35 PM,37.8,12.7,36,30.19,10.0,Calm,Calm,-,N/A,,Clear,0,2014-01-02 21:35:00
2:55 PM,39.2,12.9,34,30.19,10.0,Calm,Calm,-,N/A,,Clear,0,2014-01-02 21:55:00
3:15 PM,38.7,14.2,37,30.19,10.0,NW,3.5,-,N/A,,Clear,310,2014-01-02 22:15:00
3:35 PM,36.9,13.6,39,30.19,10.0,Calm,Calm,-,N/A,,Clear,0,2014-01-02 22:35:00
3:55 PM,38.8,11.8,33,30.19,10.0,Calm,Calm,-,N/A,,Clear,0,2014-01-02 22:55:00
4:15 PM,36.1,9.3,33,30.19,10.0,WNW,3.5,-,N/A,,Clear,290,2014-01-02 23:15:00
4:35 PM,32.0,8.6,38,30.20,10.0,WSW,3.5,-,N/A,,Clear,240,2014-01-02 23:35:00
4:55 PM,33.8,10.6,38,30.20,10.0,Calm,Calm,-,N/A,,Clear,0,2014-01-02 23:55:00
5:15 PM,37.4,10.4,33,30.20,10.0,NW,4.6,-,N/A,,Clear,310,2014-01-03 00:15:00
5:35 PM,33.8,11.7,40,30.21,10.0,SW,11.5,-,N/A,,Clear,230,2014-01-03 00:35:00
5:55 PM,34.3,11.1,38,30.21,10.0,Calm,Calm,-,N/A,,Clear,0,2014-01-03 00:55:00
6:15 PM,34.2,9.0,35,30.21,10.0,Calm,Calm,-,N/A,,Clear,0,2014-01-03 01:15:00
6:35 PM,32.5,7.2,35,30.20,10.0,SSW,8.1,-,N/A,,Clear,200,2014-01-03 01:35:00
6:55 PM,32.4,7.0,34,30.20,10.0,NNE,3.5,-,N/A,,Clear,20,2014-01-03 01:55:00
7:15 PM,30.2,8.2,40,30.20,10.0,SW,3.5,-,N/A,,Clear,230,2014-01-03 02:15:00
7:35 PM,32.2,9.1,38,30.19,10.0,Calm,Calm,-,N/A,,Clear,0,2014-01-03 02:35:00
7:55 PM,30.9,11.7,45,30.19,10.0,WSW,5.8,-,N/A,,Clear,250,2014-01-03 02:55:00
8:15 PM,26.4,11.5,53,30.18,10.0,ESE,6.9,-,N/A,,Clear,110,2014-01-03 03:15:00
8:35 PM,25.7,8.6,48,30.18,10.0,SE,5.8,-,N/A,,Clear,130,2014-01-03 03:35:00
8:55 PM,29.5,12.0,48,30.18,10.0,NW,6.9,18.4,N/A,,Clear,320,2014-01-03 03:55:00
9:15 PM,22.8,10.6,59,30.18,10.0,WSW,5.8,-,N/A,,Clear,240,2014-01-03 04:15:00
9:35 PM,26.8,10.4,50,30.17,10.0,WNW,4.6,-,N/A,,Clear,290,2014-01-03 04:35:00
9:55 PM,27.0,12.4,54,30.17,10.0,North,9.2,-,N/A,,Clear,360,2014-01-03 04:55:00
10:15 PM,29.1,9.9,45,30.17,10.0,NNW,11.5,-,N/A,,Clear,340,2014-01-03 05:15:00
10:35 PM,28.4,10.9,48,30.17,10.0,Calm,Calm,-,N/A,,Clear,0,2014-01-03 05:35:00
10:55 PM,28.6,12.0,50,30.16,10.0,NW,5.8,-,N/A,,Clear,320,2014-01-03 05:55:00
11:15 PM,31.6,10.4,41,30.15,10.0,NNW,10.4,-,N/A,,Clear,330,2014-01-03 06:15:00
11:35 PM,28.8,9.3,44,30.14,10.0,North,11.5,-,N/A,,Clear,350,2014-01-03 06:35:00
11:55 PM,29.7,12.0,48,30.14,10.0,NNW,9.2,-,N/A,,Clear,340,2014-01-03 06:55:00